Wind_Speed
9 9 10 11 12 12 13 14 15 16 17 17 18 18 18 19 20 21 21 22 23 23 23 24 24 24 24 24 25 25 26 26 25 25 25 25 24 24 25 25 25 25 24 22 21 21 23 26 27 28 27 30 33 35 38 41 42 44 46 46 46 46 45 47 50 51 49 47 46 46 43 40 39 38 36 34 33 32 31 30 31 33 34 34 33
10 11 12 13 14 14 15 15 16 16 17 18 19 19 20 21 22 23 23 23 24 25 25 26 26 27 27 27 26 26 26 26 26 26 26 26 26 26 26 26 27 28 28 27 25 24 24 25 27 27 26 28 31 31 33 36 39 42 45 47 49 49 47 46 48 49 48 47 46 46 46 44 42 41 39 37 35 34 34 32 32 33 35 35 35
11 12 13 14 16 17 18 19 19 19 20 20 21 21 22 23 24 24 25 25 26 27 28 29 29 30 30 30 30 30 29 29 28 27 27 27 27 27 27 27 28 29 29 30 29 28 28 28 28 27 26 28 30 30 31 32 34 38 42 45 48 50 49 48 48 48 48 47 47 47 47 47 46 44 42 40 38 37 37 35 33 33 35 36 37
10 11 12 14 15 17 18 20 21 22 23 24 25 25 26 26 26 27 27 28 28 28 29 30 31 32 33 33 34 34 34 34 34 32 30 29 29 29 29 28 28 28 29 30 30 30 30 31 31 30 29 29 31 31 31 32 32 34 38 41 45 48 49 48 49 50 48 47 46 46 46 47 47 46 43 42 41 40 39 38 36 36 35 37 38
10 11 12 13 14 16 17 19 21 22 23 24 25 26 27 28 29 29 30 30 31 31 32 32 33 34 35 36 36 37 37 38 38 38 37 36 35 34 33 32 31 30 30 30 30 31 31 32 32 31 31 32 33 32 32 32 33 33 36 38 40 44 46 47 49 50 50 49 48 46 45 45 46 46 45 45 44 43 42 41 40 38 38 38 39
10 11 12 13 15 16 18 19 21 22 23 24 25 26 27 28 29 31 32 33 34 35 36 37 37 38 38 39 40 40 41 41 41 42 42 41 41 41 40 38 37 35 34 33 32 31 32 33 33 32 31 32 34 34 34 34 34 34 36 37 38 39 42 44 46 47 49 51 51 49 48 47 48 48 47 47 47 46 46 45 44 42 41 40 40
13 13 14 15 16 18 19 20 21 22 23 24 25 26 27 28 30 32 33 35 37 38 39 40 41 42 43 43 43 43 44 45 45 45 45 45 45 46 46 45 44 42 40 38 37 35 34 34 34 34 33 33 33 33 33 34 35 36 36 36 36 38 40 43 43 44 47 49 51 52 52 51 50 51 50 49 48 49 50 50 49 46 43 41 41
18 18 19 20 21 23 23 24 24 24 24 25 26 27 28 30 31 33 35 37 38 40 42 43 44 45 46 46 46 47 47 47 48 47 47 47 47 48 49 49 49 49 48 46 44 42 40 39 37 36 36 35 35 34 33 33 34 36 37 36 36 37 40 42 43 44 46 47 50 51 52 52 52 52 52 51 52 54 55 54 51 47 44 43 42
22 23 23 24 25 27 28 28 28 27 28 28 29 30 32 33 35 36 37 39 40 42 43 45 47 48 49 49 49 49 50 50 50 49 49 48 49 49 50 51 52 53 53 53 51 49 47 45 43 41 39 38 37 35 34 33 33 35 36 35 36 38 40 41 43 45 46 47 49 50 51 52 54 55 56 58 59 60 57 54 51 48 46 45 44
24 25 25 26 28 29 30 30 30 30 31 32 33 34 36 38 39 40 41 42 43 44 45 47 48 49 50 51 52 52 52 52 52 51 51 50 50 50 51 52 53 54 55 55 56 55 54 52 49 47 44 42 40 38 37 36 35 35 34 33 34 38 41 42 44 45 47 48 49 49 50 54 56 58 60 62 61 60 58 56 54 52 50 48 48
25 25 26 28 29 30 31 31 31 32 33 35 36 38 40 41 43 44 45 46 47 48 49 50 50 50 51 52 53 54 54 54 54 54 53 53 52 52 52 52 53 54 54 55 56 57 57 56 55 53 51 48 45 42 40 38 37 37 35 33 32 35 39 43 45 46 46 49 50 48 50 55 57 58 59 60 60 59 60 59 56 55 54 53 53
25 26 27 29 30 30 30 30 32 34 36 38 39 41 42 43 45 46 47 48 49 50 52 52 53 53 53 53 54 54 54 55 55 55 55 55 54 53 53 53 53 53 53 54 56 57 57 56 56 55 55 54 51 48 45 42 40 38 37 36 34 34 37 41 46 48 47 49 50 50 52 55 56 56 58 59 59 60 59 58 57 58 59 58 57
25 26 28 30 30 30 30 32 34 36 38 40 41 43 44 45 46 47 48 49 50 52 53 53 54 54 54 54 54 54 54 54 53 53 54 53 53 53 52 52 51 51 52 53 54 56 56 56 56 56 56 55 54 52 50 47 44 41 39 38 37 37 37 38 43 48 50 50 51 53 55 54 53 53 55 56 57 58 59 60 60 60 61 61 60
26 28 30 30 30 30 32 34 37 39 40 41 43 44 44 45 46 46 47 48 50 51 52 53 54 54 54 54 55 55 55 55 53 53 53 53 53 52 50 50 51 52 52 52 53 54 55 56 56 57 57 56 53 52 52 50 48 45 42 41 41 41 40 39 40 43 48 52 54 56 56 53 51 51 51 52 55 58 60 62 62 61 62 62 60
28 29 30 30 30 32 34 37 39 41 42 43 44 44 44 45 45 45 46 48 49 50 52 53 54 55 55 55 56 57 58 57 55 55 54 54 53 51 48 48 50 52 54 54 54 53 53 54 55 57 58 58 56 53 52 51 49 48 46 45 45 44 43 42 41 41 43 48 54 58 59 54 50 49 49 49 52 55 57 58 59 60 59 59 58
29 29 29 30 32 34 37 39 41 43 44 44 45 45 45 45 46 46 47 49 50 51 52 53 54 56 56 55 56 58 59 58 56 55 54 53 51 49 48 49 50 52 54 56 56 55 53 52 52 54 56 57 58 57 55 52 49 48 48 48 47 47 47 46 44 42 41 41 45 52 57 56 52 48 48 49 50 50 51 53 55 56 57 58 60
29 29 30 32 35 37 40 42 43 44 45 45 45 45 45 46 47 47 48 50 52 52 53 54 55 56 57 56 55 56 59 58 54 52 52 51 48 47 49 51 52 54 56 56 55 55 54 52 51 51 53 56 57 58 57 55 52 50 51 50 49 49 50 49 46 44 41 40 40 42 48 54 55 51 48 48 49 47 47 52 57 58 57 58 60
29 30 32 35 37 40 42 43 44 45 44 44 44 45 45 47 48 48 49 51 53 54 54 55 57 57 55 55 53 53 56 56 52 49 49 48 46 45 47 49 52 55 57 57 56 54 55 55 53 52 53 54 54 55 55 54 53 53 53 52 52 52 51 50 48 46 43 41 41 40 42 47 53 55 51 49 49 47 48 53 57 57 57 59 60
31 33 35 38 40 42 43 43 44 43 43 43 43 45 46 47 48 49 50 51 53 55 55 55 58 58 54 51 50 49 50 51 48 45 44 43 40 39 40 43 47 49 51 52 54 55 56 58 57 55 53 51 50 49 49 49 52 54 54 53 54 55 54 51 48 47 45 43 43 43 42 42 46 52 55 53 50 50 52 55 55 55 58 61 60
33 35 37 40 42 43 43 43 43 42 42 43 44 45 46 48 49 49 51 52 53 55 55 55 57 57 53 50 49 47 46 47 45 41 38 36 34 33 35 38 41 43 44 46 50 53 55 57 58 56 54 52 50 49 48 48 50 53 55 55 56 57 56 53 49 47 46 45 44 44 44 43 42 46 52 55 54 53 54 55 55 56 59 61 59
34 37 40 41 43 43 43 42 41 41 41 43 44 45 46 47 48 49 51 53 54 55 55 53 54 55 51 48 48 46 44 44 43 38 34 33 32 30 32 35 36 39 42 44 46 49 50 50 51 51 49 48 48 48 48 48 50 52 55 57 59 59 57 54 51 48 46 46 46 46 46 45 44 44 47 53 57 58 56 56 56 57 59 60 60
37 39 41 42 43 43 42 41 40 40 41 42 44 45 45 46 47 48 49 51 52 52 52 50 50 52 50 47 47 45 43 41 40 37 34 32 32 31 32 34 34 36 40 44 45 46 46 45 45 44 43 42 44 45 46 47 48 51 54 56 57 57 56 54 51 49 48 48 47 47 47 47 46 45 46 49 55 59 60 58 57 57 59 59 59
39 41 42 43 43 42 41 40 40 40 41 42 43 45 45 46 46 47 47 48 48 48 48 47 48 49 49 47 44 43 41 39 39 38 36 34 33 33 33 35 35 35 41 46 47 47 47 47 46 44 41 41 43 45 46 47 47 49 52 53 54 54 53 53 51 50 50 49 48 48 48 47 47 48 48 48 50 55 60 61 59 58 58 58 58
40 41 42 43 42 41 40 39 39 40 40 41 42 44 44 45 45 44 43 43 44 45 45 45 45 47 47 47 44 42 41 41 40 40 40 37 36 35 35 36 35 34 38 44 46 45 45 46 46 43 42 42 43 44 46 47 47 48 48 50 51 51 51 51 51 50 50 49 49 49 49 49 48 48 49 48 48 50 54 58 59 58 58 58 58
41 42 42 42 41 40 39 39 39 39 40 40 41 42 42 42 42 41 40 39 40 42 42 43 44 45 46 47 47 45 44 45 44 43 42 41 39 37 35 35 35 35 38 42 44 44 43 44 44 44 44 44 44 43 44 46 47 47 47 47 48 49 49 50 50 49 50 50 49 50 50 49 49 49 48 47 47 47 49 52 54 56 57 58 59
42 42 42 41 40 39 39 39 39 39 39 39 39 39 39 38 38 38 37 37 38 40 41 42 43 45 47 48 49 49 48 47 46 45 44 44 43 41 39 39 39 39 40 43 44 44 44 44 43 42 42 43 44 43 42 43 45 46 45 45 47 48 48 48 48 49 50 50 50 50 51 50 49 48 47 46 46 46 47 49 51 53 54 55 57
42 42 40 40 39 38 38 39 39 39 38 38 38 37 36 35 36 36 36 37 39 40 41 42 43 45 48 50 50 50 49 48 47 46 45 46 46 45 45 45 44 42 41 43 45 46 46 46 44 42 40 41 42 42 41 40 40 44 45 44 45 47 48 48 48 48 49 50 50 50 50 49 47 47 46 45 46 47 47 48 50 52 52 51 52
41 40 39 38 38 37 37 38 38 38 38 37 37 36 35 34 35 36 35 37 39 41 41 42 43 45 47 49 50 51 50 48 47 46 45 45 45 46 46 46 45 44 44 45 46 46 46 46 45 44 43 42 41 42 42 39 35 37 43 44 44 46 47 46 47 49 49 49 49 48 47 46 46 47 46 46 46 47 47 47 49 51 52 51 50
40 38 37 37 36 36 36 36 36 37 37 37 36 35 34 33 34 37 37 36 37 38 38 40 42 44 45 46 48 50 51 50 47 44 42 41 40 40 41 41 42 43 43 43 44 45 45 45 45 45 43 42 41 42 42 39 34 31 34 37 39 41 42 42 44 47 48 48 47 46 45 45 46 47 47 46 46 47 48 48 49 50 52 53 52
38 37 36 36 35 35 35 35 35 35 35 36 36 36 34 32 32 35 37 37 36 35 36 37 38 40 42 43 43 44 47 47 45 41 38 36 36 37 37 37 37 38 38 38 39 41 43 44 45 44 42 41 40 39 39 38 35 31 30 31 33 36 38 40 42 44 46 47 47 46 45 45 46 47 47 46 46 47 47 48 49 49 51 52 51
37 36 35 34 34 34 34 34 34 34 34 35 36 38 39 36 34 33 35 37 38 36 35 36 36 36 37 40 40 40 42 42 40 37 35 35 35 36 35 33 33 34 33 34 36 38 40 42 43 43 42 41 39 38 37 37 34 32 32 32 32 34 37 40 42 42 43 44 45 46 46 46 47 48 48 47 46 46 47 47 47 49 50 50 51
35 34 33 33 32 32 32 33 33 33 33 34 35 37 40 42 40 37 35 36 37 38 37 37 36 35 35 36 38 39 40 38 35 33 34 35 35 33 32 31 31 32 31 33 36 38 39 41 43 43 42 42 40 38 37 37 36 35 34 32 31 31 33 38 40 41 41 42 43 45 45 46 47 48 48 47 47 46 46 46 47 48 48 48 48
32 32 31 31 31 31 31 31 31 31 32 34 35 36 38 40 43 44 41 38 37 36 36 36 37 37 36 36 36 37 37 35 33 31 32 33 33 32 32 32 32 31 31 33 36 37 38 40 43 43 43 43 41 39 38 38 37 36 34 32 31 29 29 33 36 38 39 41 42 44 45 46 47 47 47 47 47 47 47 46 46 47 46 45 45
29 29 29 30 30 30 29 29 30 30 31 32 34 35 36 38 40 43 45 44 42 39 36 34 34 35 37 37 36 35 35 35 33 31 30 31 33 33 33 34 33 29 29 32 36 38 38 39 41 41 42 42 40 38 36 35 35 34 32 31 31 28 26 28 33 35 36 38 40 42 44 45 46 46 46 45 45 45 46 46 46 46 46 45 45
27 26 26 27 28 28 28 28 28 29 30 32 33 34 36 37 38 40 42 44 44 44 42 38 36 35 37 38 37 36 35 35 34 32 30 30 32 32 33 35 34 31 30 33 36 39 40 41 41 41 39 38 37 35 34 34 34 33 31 30 30 27 24 26 30 32 33 35 38 40 43 45 46 46 46 46 46 46 46 46 46 47 47 45 45
25 25 25 25 26 27 26 26 27 28 29 31 32 33 34 36 37 39 40 41 41 43 44 43 40 38 37 38 38 37 34 33 33 33 32 31 30 30 31 33 34 34 35 37 38 40 40 40 41 41 38 34 31 31 31 31 32 31 29 29 29 26 24 26 28 30 31 34 37 41 44 45 46 46 46 47 47 48 48 48 47 47 47 46 46
24 24 24 24 25 25 25 25 25 27 28 30 31 32 33 35 36 37 39 40 41 41 42 43 43 41 40 39 38 36 34 33 34 34 33 31 29 28 29 30 31 33 35 37 38 39 38 37 37 38 36 30 25 24 26 28 29 28 29 31 31 29 27 27 29 30 31 34 38 41 43 44 45 46 46 46 47 47 48 48 47 47 46 45 45
22 23 23 24 24 24 24 25 25 26 27 28 29 30 32 34 35 36 37 39 39 40 40 41 41 41 41 41 38 35 35 37 37 35 33 30 28 27 28 29 30 31 34 36 36 36 37 36 34 33 33 28 23 21 25 27 28 28 31 32 31 28 25 24 26 29 32 34 36 38 41 43 45 46 46 47 47 47 47 46 46 45 44 43 43
21 21 22 22 22 23 23 24 25 25 27 28 28 29 31 32 34 35 36 37 38 38 38 39 38 39 39 38 36 35 37 38 38 35 32 29 27 26 28 29 29 31 34 35 35 35 36 35 32 28 27 26 24 24 25 27 27 28 27 27 25 23 22 24 28 31 33 34 35 37 39 42 43 44 45 46 46 46 45 45 45 44 44 43 44
20 20 20 20 21 21 21 23 24 25 26 27 27 27 29 31 32 33 34 35 35 35 35 36 37 37 36 34 33 33 35 35 34 32 31 30 29 28 27 27 28 31 32 33 34 35 35 34 30 26 23 22 24 25 25 24 23 23 23 23 22 21 22 25 29 32 33 33 34 36 38 39 41 42 43 44 44 44 44 44 44 44 43 43 43
19 19 19 19 19 19 20 21 22 23 24 25 25 26 27 28 30 31 31 32 32 33 33 34 34 34 32 30 28 28 28 29 30 29 29 30 30 29 27 27 27 29 31 32 33 34 34 32 29 25 22 20 20 21 19 18 18 19 20 22 22 22 23 26 29 30 31 32 33 35 36 38 39 40 41 42 42 41 41 42 42 42 41 41 41
18 18 18 18 18 18 19 20 21 22 23 23 23 24 25 27 28 28 29 29 30 31 32 33 33 32 30 28 26 25 25 26 27 28 28 29 29 29 28 26 26 27 29 30 30 31 31 30 28 25 23 21 19 17 17 16 17 18 20 21 23 23 25 26 27 28 29 30 31 33 34 35 37 38 39 40 40 39 39 40 40 40 40 39 39
17 17 17 17 17 17 18 19 20 21 22 22 22 22 23 24 25 26 27 27 29 30 31 32 32 31 30 29 27 26 26 25 26 26 27 28 28 28 27 26 25 26 26 26 27 27 26 25 25 25 24 22 20 18 17 17 17 18 19 21 21 22 22 23 24 26 27 28 29 31 32 33 34 35 36 37 37 38 38 38 38 38 38 38 38
15 15 16 16 16 16 16 17 19 20 20 20 20 20 21 22 23 24 25 26 28 29 30 30 31 31 31 30 29 28 28 27 27 26 26 26 27 27 27 26 26 26 25 25 24 24 23 22 22 22 22 22 21 20 19 18 17 16 17 17 18 19 20 21 22 23 24 25 27 29 30 31 32 33 34 34 35 36 36 36 36 36 36 36 36
14 14 15 15 15 16 16 16 17 18 19 19 19 18 19 20 21 23 24 26 27 28 29 29 30 31 32 31 31 30 29 28 28 27 26 26 26 27 27 27 26 26 25 24 23 22 22 22 21 20 20 21 21 21 20 18 17 15 14 14 14 15 16 18 19 19 21 23 25 27 28 29 29 30 31 32 33 34 34 35 35 35 34 35 35
13 13 14 15 15 15 16 16 16 17 18 18 18 17 17 18 19 21 23 25 26 27 28 29 30 31 32 33 33 33 32 31 30 29 28 27 27 27 27 26 26 25 24 23 21 21 21 21 21 21 21 21 21 20 20 18 16 14 12 11 11 12 12 13 14 15 17 19 21 23 25 26 27 28 29 30 30 31 31 32 32 33 33 33 33
12 13 14 14 15 15 15 16 16 16 17 17 17 17 16 17 18 20 21 23 24 26 27 29 30 31 33 34 35 35 35 35 34 33 32 30 29 28 27 26 26 25 24 23 22 21 21 20 20 20 19 19 19 19 18 17 16 14 11 9 8 8 8 9 9 11 13 15 18 20 22 23 25 26 27 27 28 28 29 29 30 30 30 30 31
11 12 12 13 14 14 14 14 15 16 16 16 16 16 16 16 17 18 19 21 23 24 25 27 28 30 31 32 33 35 36 36 36 36 35 34 33 32 31 30 29 27 25 24 23 22 22 22 22 21 19 19 18 17 17 16 15 14 12 10 9 8 8 7 7 6 8 11 14 16 18 20 22 23 24 25 26 26 27 28 28 28 29 29 30
10 11 11 12 12 13 13 14 14 15 15 15 15 15 15 15 16 17 18 19 21 22 23 25 26 27 28 29 30 31 32 33 34 35 35 35 35 35 35 35 34 32 30 28 26 24 23 22 22 22 21 20 19 19 18 17 16 15 14 13 12 11 9 7 5 3 5 8 11 14 16 18 19 21 22 23 24 24 25 26 27 28 29 30 30
10 10 11 11 11 11 12 12 13 14 14 14 14 14 14 14 15 16 17 18 19 20 21 22 24 25 26 27 28 29 30 31 32 32 32 33 33 33 34 34 34 34 34 33 32 30 28 26 24 24 23 22 21 21 20 20 19 18 16 15 14 13 11 9 5 1 2 6 9 12 14 16 18 20 20 21 22 23 24 26 27 28 29 29 28
9 10 10 10 10 10 11 11 11 12 12 13 13 13 13 14 14 15 16 17 18 19 20 21 22 23 24 25 27 28 28 29 30 30 30 31 31 31 31 32 31 32 32 32 32 33 32 31 30 30 29 28 27 26 25 24 22 20 19 17 16 14 12 9 7 4 2 4 7 10 12 14 16 18 19 20 21 22 23 25 25 26 26 25 25
Wind_Direction
14 11 10 9 6 5 5 3 1 359 357 355 354 353 350 348 346 345 344 342 341 340 340 339 339 338 337 336 334 333 332 331 330 329 327 326 324 321 319 316 312 308 302 293 282 276 273 270 267 265 263 261 258 256 254 251 251 251 250 249 249 249 249 249 250 254 255 256 257 259 259 257 254 251 248 245 245 247 248 246 244 243 242 240 238
4 3 1 360 358 357 357 356 355 353 350 347 346 344 342 341 339 337 336 335 334 333 332 331 331 330 330 330 330 329 328 327 327 326 324 323 321 320 319 318 315 313 310 306 301 293 285 278 273 270 267 265 262 260 257 255 253 251 249 248 248 247 247 248 250 252 253 253 254 255 256 255 252 249 248 247 247 247 247 246 244 243 243 241 239
355 353 353 352 351 351 349 348 348 347 345 343 341 339 338 336 335 333 332 331 330 329 328 327 326 324 323 323 322 322 322 322 321 321 320 319 318 317 316 314 313 313 312 311 309 306 299 291 284 278 273 269 266 264 262 258 256 254 252 249 248 247 246 247 249 251 253 253 252 253 253 253 252 250 249 249 248 247 247 247 245 243 243 242 240
345 343 344 345 344 343 342 341 340 339 338 338 337 336 335 334 333 332 330 329 328 327 326 325 324 323 321 320 319 318 317 317 316 315 315 314 313 312 312 310 308 307 307 308 309 309 306 301 296 292 286 277 271 268 265 262 259 257 255 253 251 248 246 246 246 248 251 252 252 251 251 252 253 251 249 248 247 246 245 245 244 242 241 241 240
334 332 332 333 333 332 332 332 332 331 332 332 332 332 332 332 331 330 329 328 328 327 326 325 323 322 321 320 319 317 316 314 313 312 311 310 309 308 307 306 305 304 303 302 303 304 304 303 301 300 296 290 283 277 271 266 262 260 258 257 255 253 251 247 245 245 249 251 251 250 250 249 250 250 248 247 247 245 243 242 241 240 239 238 237
319 321 320 322 324 324 325 325 325 326 326 327 327 328 328 328 328 328 328 327 327 327 326 325 323 321 320 319 317 315 314 312 311 309 309 308 307 306 304 303 302 301 300 299 299 298 298 298 299 299 298 295 293 289 283 275 268 262 259 259 260 260 258 253 247 245 246 248 249 250 249 247 248 248 248 247 247 246 243 240 238 236 236 235 235
315 318 318 321 323 323 324 324 325 324 324 324 325 325 325 325 325 325 325 325 325 324 322 321 320 318 316 315 314 312 310 309 308 306 306 305 304 303 303 302 301 300 297 296 295 295 294 294 294 295 294 294 294 294 292 287 279 270 263 260 262 263 263 259 254 249 245 246 247 248 247 247 247 248 249 248 246 245 243 240 237 235 234 234 234
321 323 323 325 327 327 327 327 326 325 325 325 324 324 323 323 322 322 322 321 321 319 318 317 315 313 312 310 309 307 305 304 303 302 301 301 300 299 299 299 299 298 297 295 293 292 291 290 290 290 290 291 291 291 291 291 288 281 273 266 262 262 262 261 259 254 248 245 245 246 246 246 245 245 246 243 240 239 238 236 236 237 237 237 235
321 322 322 323 326 327 326 326 325 325 324 324 324 323 322 321 320 320 319 318 316 315 314 312 311 310 308 307 305 303 302 300 299 298 297 296 295 294 294 294 295 295 295 294 293 291 290 288 287 286 287 288 288 288 287 287 287 286 282 275 266 261 260 259 258 256 251 247 244 244 244 243 242 241 240 240 240 241 239 237 238 238 237 237 236
317 318 318 321 323 323 323 322 322 322 323 323 322 322 321 320 320 319 317 316 314 313 311 309 308 307 305 304 303 301 300 299 298 297 296 295 293 292 291 290 290 291 291 291 291 290 290 288 286 285 284 284 284 284 284 283 282 283 283 280 272 264 260 258 256 254 252 248 244 241 240 240 240 240 239 241 242 242 240 239 238 237 234 233 234
313 313 314 317 319 319 319 319 319 319 320 321 320 320 320 319 318 317 316 315 313 312 310 308 306 304 303 301 300 299 298 297 296 295 294 293 293 292 291 290 288 287 287 287 287 288 288 288 287 285 284 282 281 282 282 281 280 279 279 278 275 268 261 257 255 253 251 249 247 242 239 239 239 239 239 241 241 240 241 240 238 236 234 233 233
308 308 308 311 313 315 316 316 316 318 318 319 318 318 318 317 316 315 314 313 312 310 309 307 306 304 302 300 299 297 296 295 294 293 292 292 292 293 293 292 290 288 286 284 283 284 284 284 284 284 283 282 281 280 279 278 278 277 277 276 273 270 264 258 254 251 250 249 247 244 241 241 239 237 237 238 239 239 239 238 237 236 236 236 236
304 303 304 308 311 314 315 315 316 317 317 316 316 315 315 314 314 314 312 312 310 308 307 306 305 304 303 301 300 298 296 295 294 293 293 293 294 294 294 293 291 288 286 283 282 281 281 281 281 281 281 281 280 280 278 277 276 275 276 275 272 269 267 262 256 251 248 248 248 246 244 243 241 238 238 237 237 237 237 237 237 235 235 237 238
300 301 304 308 310 312 313 314 315 315 314 314 313 313 313 313 312 312 311 310 308 307 307 306 305 304 303 301 300 298 296 296 295 294 294 293 293 293 293 291 288 286 284 282 281 280 279 279 279 279 279 278 278 277 276 276 275 275 274 273 272 270 267 265 260 254 248 245 246 247 246 245 244 243 242 239 238 238 238 238 238 236 237 240 242
300 303 305 308 309 311 312 313 314 314 314 313 313 313 312 312 312 312 310 309 308 307 306 305 304 303 302 300 298 297 297 296 295 294 293 292 291 291 290 288 285 283 281 280 278 278 277 277 276 276 277 276 275 274 273 273 273 274 272 271 272 271 268 266 263 260 254 248 247 247 246 245 246 246 245 244 242 241 242 243 244 244 244 245 243
302 304 305 307 310 312 313 314 314 314 314 313 313 314 314 314 314 313 311 309 308 307 305 304 303 302 300 299 297 295 296 296 294 293 292 291 291 291 289 286 284 282 280 279 278 277 275 275 274 274 274 273 273 273 272 271 270 269 269 269 269 269 269 267 265 264 262 257 253 251 249 246 244 244 245 246 245 244 243 242 242 242 240 239 238
303 304 306 309 312 313 314 315 315 314 314 314 314 315 315 315 314 313 311 310 309 307 306 304 302 301 299 298 296 295 295 294 294 293 292 291 291 290 288 286 284 282 280 278 277 276 275 272 271 270 269 269 269 270 271 271 268 265 265 266 266 266 266 267 267 266 264 262 260 257 253 248 244 242 242 245 246 245 240 236 236 235 232 231 233
304 305 309 312 313 314 315 315 315 314 314 315 316 316 316 315 314 313 312 311 309 308 306 304 302 300 299 298 297 296 295 295 295 295 294 292 291 290 287 286 284 282 281 280 279 277 275 272 270 268 267 266 267 267 267 267 266 263 262 262 262 262 263 265 266 266 265 264 263 260 256 250 245 241 239 240 243 243 238 237 236 233 229 230 232
305 308 311 313 314 315 316 315 315 314 314 316 317 317 316 316 315 315 313 311 310 308 306 305 303 302 301 301 300 299 298 298 300 300 300 299 296 292 290 287 285 284 284 284 282 280 276 273 270 268 267 266 265 265 264 262 261 260 259 258 258 258 261 263 264 264 265 265 264 263 260 254 247 242 237 236 238 240 240 239 237 233 231 232 232
307 310 311 313 315 315 315 315 314 315 316 318 318 318 317 317 316 315 314 312 310 309 308 307 306 305 306 306 305 305 304 304 306 307 305 302 299 295 292 288 287 287 287 286 285 283 281 278 275 273 271 269 267 265 262 259 257 256 255 254 253 255 260 262 262 262 265 266 265 264 263 260 253 246 240 235 233 236 238 238 235 233 233 233 231
308 310 312 314 314 315 315 314 315 317 319 320 319 318 318 318 317 316 315 314 313 311 309 309 307 307 308 308 308 307 307 307 308 308 304 300 298 296 292 289 289 289 289 288 286 286 285 285 283 281 279 276 273 269 265 261 257 255 253 252 253 256 259 260 260 260 262 263 264 262 261 259 255 250 244 237 233 232 234 235 233 233 233 232 230
308 310 312 313 314 314 314 315 316 319 320 320 319 319 319 320 319 318 317 316 313 310 309 309 309 308 308 308 308 308 309 309 309 309 305 300 298 295 291 289 289 289 288 286 285 284 283 283 283 283 282 279 276 273 270 265 259 255 253 252 254 256 257 257 258 258 257 258 258 257 256 255 252 249 246 241 236 233 232 233 232 231 232 232 231
309 311 312 313 313 314 314 316 319 320 320 320 320 321 321 321 321 321 319 316 312 311 311 312 311 309 309 309 309 311 312 313 314 314 310 304 298 295 293 290 289 288 286 284 283 283 283 281 281 281 281 280 278 276 272 267 262 257 253 251 252 254 255 254 253 253 253 252 251 251 251 251 249 248 246 244 240 236 233 232 232 230 230 230 230
310 312 312 312 313 314 315 318 320 320 321 322 323 323 324 324 324 322 319 316 314 314 314 314 313 312 312 312 313 315 317 318 317 317 315 311 303 297 293 291 291 291 288 286 286 285 284 282 281 281 281 281 281 279 274 268 263 258 254 251 249 250 250 250 249 249 248 247 245 246 247 248 248 248 248 247 244 240 236 234 233 232 231 230 229
311 312 312 313 314 315 316 318 320 321 323 325 325 325 327 327 325 322 319 318 317 317 317 317 316 315 314 314 316 318 319 319 318 317 317 314 309 306 302 299 300 300 295 291 290 288 285 284 283 282 282 281 281 283 280 272 264 259 255 250 247 247 247 246 246 245 244 243 242 242 245 246 247 249 251 249 245 240 236 234 233 233 233 232 231
311 312 312 313 314 316 317 319 321 322 325 327 327 327 329 328 325 322 322 322 321 320 320 320 319 317 316 316 317 317 317 316 316 315 315 313 311 311 310 307 306 304 299 295 294 292 290 288 288 287 284 280 280 283 287 282 269 259 254 249 245 244 244 244 243 242 241 241 241 241 243 246 248 249 249 246 241 239 236 232 231 231 231 231 231
312 312 313 314 315 317 318 320 322 324 326 327 328 329 331 330 325 324 326 327 325 324 323 321 319 317 316 315 315 314 313 313 313 312 312 312 310 310 309 308 307 306 303 301 301 299 297 296 295 294 290 286 284 285 288 290 279 260 251 248 245 242 242 243 242 242 241 241 240 241 243 245 246 246 244 241 239 238 236 232 229 228 228 227 227
312 313 314 314 315 318 321 322 323 325 327 328 329 330 332 331 327 327 331 331 327 324 321 318 315 313 312 311 311 310 309 309 310 311 311 310 309 309 308 307 306 304 302 301 301 300 298 296 295 295 292 291 291 289 288 293 289 266 249 244 243 242 243 243 243 242 241 240 240 240 241 242 242 243 242 239 237 237 235 231 229 228 227 225 222
312 313 313 314 316 320 322 323 324 326 327 328 330 331 332 332 332 331 332 332 328 321 314 310 308 308 308 308 308 307 307 308 309 309 309 308 308 308 306 305 303 300 298 298 297 295 293 292 290 291 291 289 291 291 289 292 295 280 258 248 243 241 240 242 242 241 239 238 237 238 238 239 240 241 240 237 236 235 233 231 229 227 227 224 222
312 313 313 314 318 322 322 323 325 327 328 330 331 330 330 334 337 335 333 332 330 323 313 308 308 307 305 305 306 305 304 305 307 308 310 312 312 309 305 303 302 300 299 299 295 290 289 290 289 290 290 289 289 290 290 291 292 288 277 266 257 249 245 244 244 242 239 237 236 236 236 237 237 237 236 234 234 232 231 229 228 226 225 223 220
312 312 313 316 320 322 322 323 326 328 330 332 332 331 331 334 339 342 339 334 331 328 323 318 316 312 308 307 307 306 304 305 308 312 314 313 310 307 304 302 301 301 301 301 297 292 289 289 289 288 288 287 287 287 288 288 287 286 283 275 266 260 253 248 245 241 238 236 236 235 234 234 234 234 234 233 231 229 227 225 224 223 224 222 219
310 311 314 317 320 322 322 324 327 329 331 333 333 332 332 333 336 343 344 339 333 331 329 326 323 321 318 314 312 310 309 310 312 313 311 308 306 306 304 303 303 302 302 301 298 295 291 287 286 285 284 284 283 283 283 283 281 283 282 272 264 263 258 249 244 240 237 237 237 235 233 233 233 233 233 231 228 225 223 221 219 220 220 218 216
310 312 315 317 320 321 322 324 327 330 332 334 333 333 334 333 333 336 340 341 339 336 334 331 329 327 326 324 321 318 316 314 314 311 307 305 306 306 305 307 307 304 305 306 302 298 294 289 285 283 281 280 279 279 280 279 277 281 283 273 264 267 265 253 245 242 240 239 239 237 234 233 232 231 230 228 225 223 222 220 218 217 216 212 211
309 312 315 318 319 320 322 324 327 330 333 333 333 333 335 335 332 331 333 335 337 339 341 340 338 334 331 331 330 326 321 317 315 313 309 306 306 306 308 311 310 306 307 311 309 304 301 296 290 285 281 278 276 275 275 274 273 277 283 277 268 269 271 258 245 241 239 239 239 238 236 234 232 229 226 223 220 220 220 218 217 215 213 209 209
309 311 315 317 318 318 321 324 328 331 333 333 333 334 336 335 333 331 331 330 330 332 335 339 341 340 336 333 333 330 326 321 318 317 314 310 308 309 311 314 315 314 316 318 316 312 309 304 298 293 285 277 273 271 270 270 271 275 281 278 268 267 270 260 248 242 241 241 242 242 239 236 232 229 225 221 219 217 217 217 217 216 213 209 208
309 311 315 318 317 317 320 324 329 332 332 332 333 336 336 335 333 332 331 330 328 327 329 332 336 338 337 336 335 333 329 326 323 321 319 316 315 315 316 318 319 319 317 314 312 311 310 307 303 300 293 284 276 272 270 270 271 273 275 271 264 262 267 263 255 251 248 247 246 244 239 234 231 228 224 221 219 220 221 221 219 217 214 211 209
310 313 317 318 317 317 320 326 330 332 332 331 333 337 337 336 335 333 332 331 329 328 329 330 331 333 336 338 338 335 332 330 328 325 322 321 322 322 323 322 320 317 313 312 314 315 315 313 309 304 299 292 281 273 270 270 269 271 272 266 259 259 264 263 258 256 252 246 242 239 236 233 231 228 224 221 219 219 219 219 217 214 213 210 207
310 315 318 319 318 319 322 326 331 333 332 332 336 339 338 336 335 334 333 332 331 329 330 330 330 331 332 333 337 339 336 331 328 327 328 329 329 329 330 329 326 322 320 321 323 323 321 320 317 310 304 297 286 274 269 269 272 277 275 264 256 257 262 259 256 256 254 247 242 240 237 234 231 228 225 223 219 216 214 213 211 209 207 205 204
310 314 317 319 320 320 323 328 332 334 333 334 338 340 339 337 336 335 334 334 334 332 332 333 334 334 333 333 338 340 335 328 327 329 332 333 334 335 337 337 334 331 329 327 328 329 328 328 327 321 310 302 295 286 279 278 281 282 275 264 257 258 261 260 257 255 252 248 245 241 237 232 228 225 222 220 218 214 212 210 209 208 206 205 205
310 314 317 320 322 323 325 330 333 333 333 336 339 341 340 338 338 338 337 337 337 337 338 337 337 338 339 340 340 336 329 327 331 334 336 339 341 341 344 343 339 336 334 333 333 334 334 336 337 332 321 310 302 295 290 286 284 278 269 265 265 263 260 261 260 255 249 246 243 238 232 227 223 220 218 216 215 214 213 212 211 210 209 207 205
310 314 319 323 325 326 328 331 333 333 334 337 340 342 342 341 340 340 341 342 343 343 344 344 344 345 346 347 344 338 333 335 340 342 343 345 345 344 346 347 343 340 340 339 338 337 338 341 343 341 335 329 318 307 298 290 282 276 270 269 270 266 261 259 257 251 246 243 239 234 230 226 222 219 217 215 213 212 212 210 209 207 205 203 202
311 315 321 326 329 329 330 333 334 334 335 339 344 345 344 344 344 344 346 350 351 351 351 351 352 353 355 355 353 350 347 348 350 350 350 350 349 348 349 349 348 347 346 344 342 340 340 344 347 346 345 343 337 326 313 299 291 287 283 278 275 269 262 257 252 246 242 239 235 232 229 226 222 219 216 214 212 210 208 207 205 203 202 200 200
311 318 325 329 331 331 332 333 333 334 337 343 348 348 346 346 348 350 352 356 359 359 359 359 359 0 2 2 0 358 357 357 357 357 356 355 355 354 353 351 352 352 351 349 347 344 343 346 350 350 348 346 344 339 332 321 310 300 292 284 277 268 260 254 249 245 241 237 233 230 226 222 218 215 213 211 210 208 206 205 203 202 201 199 198
312 319 325 329 330 331 331 331 332 334 340 347 350 350 349 350 352 356 359 2 5 7 7 6 6 7 8 9 8 7 5 4 3 2 1 0 360 359 358 356 356 355 354 353 352 350 349 351 354 352 350 349 349 347 342 335 326 315 301 289 278 269 261 256 251 248 244 239 233 227 222 219 216 213 211 210 209 207 205 203 202 200 199 197 196
313 320 325 327 329 329 330 331 332 336 342 349 351 351 353 356 359 2 4 8 12 14 15 14 15 16 16 17 17 16 14 12 10 9 7 6 5 5 4 3 1 359 357 356 356 356 356 357 357 357 358 357 357 355 350 344 338 329 315 298 284 272 263 258 255 252 247 241 234 227 222 217 214 212 211 209 208 207 205 203 202 200 198 197 196
314 321 324 325 328 330 331 332 335 341 347 350 351 353 357 2 6 9 10 13 18 20 21 22 24 25 25 26 25 24 23 22 20 18 16 13 12 11 11 10 8 6 4 3 3 5 6 6 5 6 6 5 4 3 359 355 351 343 331 315 298 284 275 270 265 257 249 240 233 227 221 215 212 210 209 206 205 204 202 200 199 198 196 195 195
317 322 323 325 329 332 332 333 339 347 352 352 352 355 0 6 11 15 16 19 23 26 27 29 30 31 32 32 32 31 31 30 28 27 25 23 22 20 19 18 16 14 13 13 13 14 16 16 14 14 13 13 15 15 14 11 9 4 355 345 331 317 307 298 284 268 252 240 231 225 220 214 208 205 204 203 201 200 198 196 195 194 193 192 190
319 321 323 327 330 332 334 338 344 350 354 354 355 359 3 8 13 18 21 23 26 29 31 31 32 33 33 34 34 34 35 35 34 34 33 33 32 31 29 28 26 24 22 22 22 22 23 22 21 20 20 21 23 26 26 27 27 24 20 17 11 4 355 341 318 286 253 235 225 219 216 212 205 201 199 198 197 196 194 192 190 189 188 186 183
320 320 322 329 333 334 337 344 349 353 355 356 359 2 5 8 13 19 24 27 28 29 29 29 29 29 30 31 32 33 34 35 35 36 36 36 37 37 36 36 35 34 33 33 32 32 31 30 29 29 30 31 33 35 37 39 40 40 38 37 33 28 23 13 353 299 240 224 216 211 207 203 198 194 192 191 191 190 188 187 185 183 181 177 175
318 318 322 329 332 335 341 348 352 353 354 355 359 2 5 9 13 18 22 25 27 27 26 26 26 25 25 26 27 29 31 32 33 33 34 34 35 37 38 38 39 39 40 41 41 41 42 42 42 43 43 42 43 45 45 46 46 46 45 44 42 40 38 35 29 19 211 206 203 200 198 194 189 185 183 183 183 183 183 181 179 177 175 173 173
312 314 320 325 329 335 341 347 351 352 352 353 357 1 4 8 13 16 18 20 22 23 22 22 23 23 23 23 24 25 27 29 30 31 32 32 33 35 36 37 38 40 41 43 45 46 47 48 49 50 51 51 51 51 51 51 50 50 50 50 49 48 48 49 55 75 135 178 186 188 187 184 179 175 174 174 176 176 175 173 171 170 170 170 170
Height
1512 1512 1511 1511 1510 1510 1509 1508 1507 1506 1505 1504 1503 1502 1501 1500 1500 1499 1498 1497 1495 1494 1493 1491 1490 1489 1487 1486 1484 1483 1481 1479 1476 1474 1472 1471 1469 1468 1467 1466 1464 1463 1461 1460 1459 1458 1456 1455 1454 1455 1455 1454 1453 1454 1454 1455 1456 1457 1458 1459 1459 1460 1462 1462 1458 1456 1459 1462 1464 1465 1467 1468 1468 1468 1470 1472 1473 1473 1474 1476 1477 1478 1479 1480 1482
1511 1511 1510 1509 1509 1508 1508 1507 1506 1505 1504 1503 1501 1500 1499 1498 1498 1497 1496 1495 1493 1492 1490 1489 1487 1486 1484 1483 1482 1481 1479 1477 1475 1473 1471 1469 1467 1466 1465 1463 1462 1460 1459 1458 1456 1455 1453 1451 1450 1450 1451 1450 1448 1449 1449 1450 1451 1451 1451 1452 1452 1453 1456 1457 1455 1453 1454 1456 1458 1460 1461 1462 1462 1463 1465 1467 1468 1469 1469 1471 1472 1473 1475 1476 1478
1510 1509 1508 1508 1507 1506 1505 1504 1503 1502 1501 1500 1499 1498 1497 1497 1496 1494 1493 1492 1491 1489 1488 1486 1484 1483 1481 1480 1479 1478 1476 1475 1473 1471 1469 1468 1466 1464 1463 1461 1459 1457 1456 1454 1453 1452 1450 1448 1446 1446 1446 1445 1444 1444 1444 1444 1445 1445 1445 1446 1446 1446 1449 1451 1451 1449 1449 1450 1452 1454 1455 1455 1456 1458 1460 1462 1464 1464 1465 1466 1468 1469 1470 1471 1473
1509 1508 1507 1507 1505 1504 1503 1502 1500 1499 1498 1497 1496 1495 1495 1494 1493 1492 1491 1489 1488 1487 1485 1483 1482 1480 1478 1477 1476 1475 1473 1472 1470 1469 1468 1466 1464 1462 1461 1459 1457 1455 1453 1451 1450 1448 1447 1445 1444 1443 1442 1440 1439 1439 1440 1439 1439 1439 1439 1440 1441 1441 1442 1444 1445 1444 1444 1445 1446 1447 1449 1450 1451 1453 1455 1457 1458 1459 1460 1461 1462 1463 1465 1466 1468
1508 1507 1506 1505 1504 1503 1501 1500 1499 1498 1497 1495 1494 1493 1492 1491 1490 1488 1487 1486 1485 1483 1482 1481 1479 1478 1476 1474 1473 1472 1470 1469 1467 1465 1464 1463 1461 1459 1458 1456 1454 1452 1450 1448 1446 1445 1443 1442 1441 1440 1439 1436 1434 1434 1435 1434 1434 1434 1433 1433 1436 1437 1438 1439 1438 1439 1439 1439 1440 1442 1444 1445 1446 1447 1448 1450 1452 1454 1455 1455 1456 1458 1459 1460 1462
1506 1505 1504 1503 1502 1501 1500 1499 1498 1496 1495 1494 1493 1491 1490 1488 1487 1485 1484 1482 1481 1480 1478 1477 1476 1474 1473 1471 1470 1469 1467 1466 1464 1462 1460 1458 1456 1455 1453 1451 1450 1448 1446 1444 1442 1441 1440 1438 1437 1436 1435 1433 1431 1431 1430 1430 1429 1429 1427 1428 1430 1433 1434 1434 1433 1433 1433 1432 1433 1435 1437 1438 1439 1440 1442 1444 1446 1447 1448 1449 1450 1451 1453 1455 1457
1504 1503 1502 1501 1500 1499 1498 1497 1496 1495 1493 1492 1491 1489 1488 1487 1485 1483 1482 1480 1478 1476 1475 1473 1472 1470 1468 1467 1466 1465 1463 1461 1459 1458 1456 1454 1452 1449 1447 1445 1443 1442 1441 1439 1438 1437 1435 1434 1433 1432 1432 1430 1428 1427 1426 1426 1425 1424 1423 1423 1425 1427 1428 1429 1429 1428 1426 1426 1427 1427 1429 1431 1433 1435 1436 1439 1440 1441 1441 1441 1441 1443 1447 1449 1451
1501 1500 1499 1498 1498 1496 1495 1495 1493 1492 1491 1489 1488 1487 1486 1484 1483 1481 1480 1477 1475 1473 1471 1469 1467 1465 1464 1462 1460 1459 1457 1455 1454 1452 1450 1448 1446 1444 1441 1439 1437 1435 1434 1433 1432 1431 1430 1429 1428 1427 1427 1426 1424 1423 1422 1421 1420 1418 1418 1419 1419 1421 1421 1423 1424 1424 1421 1419 1419 1420 1422 1424 1426 1428 1430 1431 1431 1430 1430 1432 1435 1439 1442 1443 1445
1498 1497 1496 1495 1494 1493 1492 1491 1490 1489 1488 1486 1485 1484 1482 1481 1479 1478 1476 1474 1472 1470 1468 1465 1463 1460 1458 1456 1455 1453 1450 1448 1447 1445 1444 1442 1440 1437 1435 1433 1430 1428 1426 1424 1424 1423 1423 1422 1422 1422 1421 1420 1419 1418 1417 1417 1415 1413 1413 1414 1414 1414 1415 1416 1418 1418 1417 1414 1412 1412 1414 1415 1416 1418 1419 1419 1419 1421 1425 1429 1432 1435 1436 1438 1439
1496 1495 1494 1493 1492 1490 1489 1488 1486 1485 1484 1482 1481 1479 1478 1476 1474 1472 1470 1469 1467 1465 1463 1461 1458 1456 1453 1450 1448 1446 1443 1441 1440 1438 1437 1435 1433 1431 1429 1427 1425 1422 1420 1417 1415 1415 1414 1414 1414 1414 1415 1414 1413 1412 1411 1411 1411 1409 1408 1408 1408 1408 1408 1409 1410 1411 1412 1409 1406 1405 1405 1404 1405 1407 1407 1409 1413 1417 1421 1424 1426 1428 1430 1431 1432
1494 1493 1491 1490 1489 1488 1486 1485 1483 1482 1480 1479 1477 1475 1473 1471 1468 1466 1464 1462 1460 1458 1456 1454 1451 1450 1447 1444 1442 1439 1436 1435 1433 1431 1429 1427 1426 1423 1421 1419 1418 1416 1414 1412 1409 1407 1407 1406 1406 1406 1406 1406 1406 1405 1405 1405 1405 1404 1404 1403 1403 1402 1402 1402 1403 1404 1406 1404 1402 1401 1397 1393 1394 1398 1401 1404 1408 1411 1413 1416 1420 1422 1423 1422 1423
1490 1490 1489 1488 1486 1485 1483 1481 1479 1478 1476 1474 1472 1469 1467 1465 1463 1460 1458 1455 1453 1450 1448 1446 1443 1441 1439 1436 1434 1431 1429 1428 1426 1423 1421 1419 1418 1416 1413 1411 1409 1408 1407 1405 1403 1401 1400 1399 1398 1397 1397 1397 1398 1398 1398 1399 1399 1398 1398 1397 1397 1396 1395 1396 1396 1397 1399 1398 1396 1395 1391 1386 1386 1390 1393 1397 1401 1404 1407 1410 1413 1414 1414 1415 1415
1487 1486 1485 1484 1483 1481 1479 1477 1475 1473 1471 1469 1467 1464 1462 1459 1457 1454 1451 1449 1446 1443 1441 1438 1435 1433 1430 1428 1425 1423 1421 1419 1418 1416 1414 1412 1411 1409 1406 1404 1401 1399 1398 1397 1396 1395 1393 1392 1390 1389 1389 1389 1390 1390 1391 1391 1391 1391 1391 1390 1389 1389 1389 1390 1389 1390 1391 1391 1389 1387 1384 1384 1383 1383 1385 1390 1395 1398 1401 1402 1404 1406 1407 1407 1409
1484 1483 1482 1481 1479 1477 1475 1473 1471 1469 1466 1464 1462 1459 1457 1454 1451 1449 1446 1443 1439 1436 1433 1430 1428 1425 1423 1420 1416 1414 1412 1411 1410 1409 1407 1405 1403 1401 1399 1396 1394 1391 1389 1388 1387 1386 1385 1385 1383 1381 1381 1381 1381 1382 1382 1383 1383 1383 1383 1382 1381 1381 1382 1383 1383 1382 1383 1383 1381 1378 1378 1381 1382 1380 1382 1385 1387 1389 1391 1393 1396 1399 1401 1403 1407
1481 1479 1478 1476 1475 1473 1471 1468 1466 1464 1461 1459 1456 1453 1451 1448 1445 1443 1440 1436 1433 1429 1426 1423 1420 1417 1415 1412 1408 1405 1403 1402 1401 1400 1398 1397 1396 1394 1392 1389 1386 1383 1381 1379 1379 1378 1377 1377 1375 1374 1373 1372 1373 1373 1374 1375 1375 1375 1375 1374 1373 1373 1374 1375 1376 1376 1375 1374 1373 1371 1371 1376 1378 1379 1379 1379 1379 1381 1386 1390 1394 1397 1400 1402 1405
1477 1475 1473 1472 1470 1468 1466 1463 1461 1458 1456 1453 1450 1447 1444 1441 1438 1435 1432 1429 1426 1423 1419 1416 1413 1409 1406 1404 1401 1396 1393 1393 1393 1391 1390 1388 1387 1385 1382 1380 1377 1374 1371 1370 1369 1368 1369 1368 1367 1366 1364 1364 1364 1365 1366 1367 1368 1367 1366 1366 1366 1366 1366 1367 1369 1369 1368 1367 1366 1365 1365 1369 1372 1374 1374 1373 1373 1377 1383 1387 1389 1392 1394 1395 1394
1472 1471 1469 1467 1465 1463 1460 1458 1455 1452 1450 1447 1444 1441 1438 1434 1432 1429 1425 1421 1418 1415 1411 1408 1405 1401 1398 1395 1393 1388 1384 1384 1384 1383 1381 1380 1378 1376 1372 1369 1367 1364 1361 1360 1360 1359 1359 1359 1359 1358 1356 1355 1355 1357 1358 1359 1359 1358 1358 1357 1358 1358 1357 1359 1361 1361 1361 1360 1359 1358 1359 1360 1363 1366 1368 1367 1368 1372 1376 1377 1378 1381 1383 1384 1384
1468 1466 1464 1462 1460 1457 1455 1452 1449 1447 1444 1441 1438 1434 1431 1428 1425 1422 1418 1413 1409 1406 1403 1399 1395 1393 1390 1387 1385 1381 1376 1375 1376 1375 1372 1371 1370 1367 1364 1360 1357 1353 1350 1349 1349 1349 1349 1348 1349 1349 1347 1346 1347 1349 1351 1352 1351 1350 1350 1350 1350 1349 1349 1351 1352 1352 1353 1353 1352 1351 1351 1352 1354 1357 1360 1361 1361 1364 1366 1365 1367 1373 1376 1375 1376
1463 1461 1459 1457 1455 1452 1450 1447 1444 1442 1439 1435 1432 1428 1425 1422 1418 1415 1411 1406 1402 1398 1394 1390 1385 1383 1381 1380 1378 1375 1370 1367 1367 1367 1364 1363 1362 1360 1357 1354 1349 1346 1344 1341 1339 1338 1336 1336 1336 1338 1338 1338 1339 1342 1344 1346 1344 1343 1343 1343 1341 1339 1340 1343 1344 1344 1345 1344 1344 1343 1343 1345 1346 1348 1350 1353 1354 1355 1355 1356 1360 1365 1366 1366 1370
1458 1457 1454 1452 1449 1447 1444 1442 1439 1436 1433 1429 1426 1422 1419 1415 1411 1408 1404 1400 1395 1390 1386 1382 1377 1373 1373 1372 1369 1367 1364 1360 1359 1360 1358 1356 1356 1355 1352 1349 1344 1341 1339 1336 1331 1327 1325 1324 1324 1325 1327 1327 1329 1331 1334 1336 1337 1335 1335 1334 1331 1330 1332 1335 1336 1336 1337 1336 1336 1336 1336 1337 1339 1339 1341 1344 1346 1346 1346 1349 1353 1355 1355 1359 1363
1454 1452 1449 1447 1445 1442 1440 1437 1434 1431 1427 1423 1419 1416 1413 1409 1405 1401 1397 1392 1388 1383 1379 1375 1370 1365 1365 1364 1362 1360 1359 1355 1353 1354 1353 1351 1351 1351 1347 1344 1341 1338 1333 1330 1326 1321 1318 1316 1315 1315 1317 1317 1317 1318 1320 1323 1325 1326 1324 1322 1320 1322 1325 1326 1327 1328 1329 1328 1328 1329 1329 1330 1331 1332 1333 1334 1336 1337 1338 1341 1344 1347 1348 1351 1354
1450 1447 1445 1442 1440 1437 1435 1432 1428 1425 1421 1417 1414 1410 1407 1404 1399 1395 1391 1386 1381 1376 1372 1369 1364 1359 1357 1358 1356 1354 1353 1351 1349 1349 1348 1346 1346 1345 1342 1339 1338 1335 1329 1323 1320 1317 1313 1311 1309 1309 1310 1310 1310 1309 1309 1310 1312 1313 1312 1312 1312 1314 1316 1317 1319 1320 1320 1320 1321 1321 1322 1322 1323 1324 1325 1325 1326 1329 1331 1333 1336 1339 1342 1345 1348
1445 1442 1440 1437 1435 1432 1430 1426 1423 1419 1416 1413 1408 1404 1401 1398 1394 1389 1385 1381 1375 1370 1366 1362 1358 1353 1350 1350 1350 1348 1347 1346 1345 1343 1342 1341 1339 1339 1337 1334 1332 1331 1324 1317 1314 1311 1308 1305 1303 1303 1304 1304 1303 1302 1301 1301 1301 1301 1302 1303 1305 1306 1308 1309 1311 1312 1312 1313 1313 1313 1313 1315 1315 1316 1316 1317 1319 1322 1324 1326 1329 1332 1335 1339 1342
1440 1437 1435 1432 1430 1427 1424 1421 1418 1414 1411 1407 1403 1399 1396 1392 1388 1384 1381 1377 1371 1365 1360 1357 1353 1348 1344 1343 1343 1343 1342 1340 1339 1338 1336 1335 1333 1332 1331 1328 1326 1324 1319 1312 1308 1306 1302 1298 1297 1297 1297 1296 1295 1294 1293 1292 1291 1291 1293 1295 1297 1299 1300 1301 1302 1303 1304 1304 1304 1304 1305 1306 1307 1308 1309 1310 1313 1316 1318 1321 1324 1326 1330 1332 1335
1435 1432 1430 1427 1425 1422 1419 1416 1413 1409 1406 1402 1398 1395 1391 1387 1383 1380 1377 1372 1367 1361 1356 1353 1349 1344 1340 1337 1336 1336 1336 1334 1332 1331 1330 1328 1326 1325 1324 1321 1319 1317 1312 1307 1303 1300 1297 1294 1292 1291 1290 1289 1288 1286 1284 1283 1283 1283 1284 1287 1289 1291 1292 1292 1294 1295 1295 1295 1295 1296 1297 1298 1300 1301 1303 1306 1309 1311 1313 1315 1318 1320 1323 1326 1329
1430 1427 1425 1422 1420 1417 1414 1410 1407 1404 1401 1398 1394 1391 1387 1383 1379 1376 1372 1368 1363 1358 1353 1349 1345 1340 1336 1333 1331 1329 1329 1328 1325 1324 1322 1320 1318 1316 1315 1313 1311 1309 1305 1301 1297 1294 1292 1289 1287 1285 1283 1282 1281 1278 1275 1274 1274 1275 1276 1278 1280 1281 1283 1284 1285 1286 1285 1286 1287 1289 1290 1292 1294 1296 1299 1302 1303 1305 1307 1309 1311 1313 1316 1319 1322
1425 1422 1420 1417 1415 1412 1408 1405 1402 1399 1396 1393 1390 1387 1384 1381 1377 1373 1368 1363 1358 1354 1349 1345 1341 1337 1333 1330 1327 1325 1324 1323 1320 1318 1316 1313 1309 1307 1305 1303 1302 1300 1297 1294 1290 1287 1284 1282 1280 1278 1277 1276 1274 1272 1269 1266 1265 1265 1267 1269 1271 1272 1274 1276 1277 1278 1278 1279 1281 1282 1285 1288 1290 1291 1293 1295 1296 1298 1301 1303 1304 1306 1309 1312 1315
1420 1418 1415 1413 1410 1407 1404 1400 1397 1394 1391 1389 1386 1382 1380 1377 1373 1368 1364 1359 1354 1349 1346 1342 1339 1336 1332 1328 1324 1321 1320 1319 1317 1314 1312 1309 1305 1302 1300 1297 1294 1292 1289 1286 1283 1279 1277 1275 1273 1272 1271 1270 1268 1265 1263 1260 1258 1257 1259 1261 1262 1264 1267 1269 1270 1271 1272 1273 1275 1277 1279 1282 1284 1285 1287 1288 1290 1292 1295 1297 1299 1301 1304 1307 1309
1416 1413 1411 1409 1406 1403 1400 1397 1393 1390 1387 1384 1381 1379 1377 1374 1369 1362 1359 1357 1353 1349 1345 1342 1339 1336 1332 1329 1324 1318 1314 1313 1313 1311 1309 1306 1304 1301 1298 1295 1291 1288 1285 1282 1279 1275 1272 1271 1269 1267 1266 1264 1262 1260 1258 1256 1254 1252 1253 1254 1256 1257 1260 1262 1263 1264 1265 1267 1269 1271 1273 1276 1277 1279 1280 1282 1284 1286 1288 1290 1292 1294 1297 1301 1303
1411 1409 1407 1404 1402 1398 1395 1392 1389 1386 1383 1379 1376 1373 1372 1371 1367 1360 1355 1353 1352 1349 1345 1341 1338 1334 1330 1327 1324 1319 1313 1309 1308 1307 1305 1302 1300 1297 1294 1291 1288 1285 1282 1279 1276 1272 1268 1266 1264 1262 1261 1259 1258 1256 1254 1252 1250 1248 1248 1249 1250 1251 1253 1255 1256 1258 1260 1261 1263 1265 1267 1269 1271 1273 1274 1276 1278 1280 1282 1284 1286 1288 1290 1293 1297
1407 1405 1403 1400 1397 1394 1391 1388 1385 1383 1379 1375 1371 1367 1364 1362 1361 1358 1354 1350 1347 1345 1342 1338 1335 1333 1328 1323 1320 1317 1312 1307 1304 1302 1300 1297 1295 1292 1289 1286 1283 1280 1277 1274 1271 1267 1264 1261 1259 1257 1256 1254 1253 1252 1251 1249 1247 1246 1245 1245 1245 1246 1248 1249 1250 1252 1254 1256 1258 1260 1261 1263 1264 1266 1268 1270 1272 1275 1277 1279 1281 1282 1284 1287 1290
1403 1401 1399 1396 1394 1391 1388 1385 1382 1379 1375 1372 1369 1365 1359 1353 1350 1350 1350 1348 1344 1340 1337 1334 1330 1328 1325 1320 1316 1312 1308 1304 1301 1298 1296 1293 1291 1288 1284 1281 1278 1276 1273 1270 1266 1262 1259 1256 1253 1252 1250 1248 1247 1247 1247 1245 1244 1243 1242 1242 1241 1242 1242 1243 1245 1247 1249 1251 1253 1254 1256 1257 1259 1260 1262 1265 1267 1269 1272 1274 1276 1277 1279 1282 1285
1400 1398 1395 1392 1390 1388 1385 1382 1379 1376 1372 1368 1365 1362 1357 1350 1344 1341 1341 1342 1341 1337 1333 1330 1326 1322 1319 1316 1313 1308 1304 1301 1297 1295 1292 1289 1286 1283 1280 1277 1274 1271 1268 1265 1261 1257 1254 1251 1247 1245 1243 1241 1241 1241 1241 1240 1240 1239 1238 1238 1238 1237 1238 1239 1240 1242 1244 1246 1248 1250 1251 1253 1254 1255 1257 1259 1262 1264 1266 1269 1271 1274 1276 1278 1280
1397 1395 1392 1389 1386 1384 1382 1379 1376 1372 1369 1366 1363 1359 1354 1349 1344 1339 1335 1333 1332 1330 1327 1324 1322 1318 1314 1311 1308 1305 1301 1297 1293 1290 1288 1285 1282 1279 1276 1272 1269 1266 1263 1260 1256 1252 1248 1245 1241 1239 1237 1235 1235 1235 1235 1235 1235 1234 1234 1233 1234 1234 1234 1235 1236 1237 1239 1241 1244 1245 1247 1249 1250 1251 1252 1254 1257 1259 1262 1264 1267 1270 1272 1274 1276
1394 1392 1390 1387 1384 1381 1379 1376 1373 1369 1366 1363 1360 1356 1351 1347 1344 1340 1336 1331 1327 1324 1321 1318 1316 1313 1310 1307 1304 1301 1297 1294 1290 1287 1284 1281 1278 1275 1272 1268 1264 1261 1258 1254 1251 1247 1244 1240 1237 1233 1231 1229 1229 1229 1230 1230 1230 1230 1229 1229 1230 1230 1231 1231 1232 1233 1235 1237 1239 1241 1243 1244 1245 1246 1247 1249 1251 1254 1257 1259 1262 1265 1267 1270 1273
1391 1389 1387 1384 1381 1378 1376 1373 1370 1367 1363 1360 1357 1353 1349 1345 1342 1338 1335 1331 1327 1322 1318 1314 1311 1308 1306 1303 1300 1296 1293 1290 1286 1283 1280 1277 1275 1272 1268 1264 1261 1258 1254 1251 1248 1244 1241 1237 1233 1229 1226 1225 1224 1225 1225 1226 1226 1226 1225 1225 1226 1227 1227 1228 1228 1230 1231 1233 1235 1237 1238 1239 1240 1241 1243 1244 1246 1249 1251 1254 1257 1260 1263 1266 1269
1387 1385 1383 1381 1378 1375 1373 1371 1368 1364 1362 1359 1355 1351 1346 1343 1340 1336 1333 1329 1325 1321 1316 1312 1308 1304 1301 1298 1296 1292 1288 1285 1282 1278 1275 1273 1270 1267 1264 1261 1258 1255 1251 1248 1244 1240 1236 1233 1229 1225 1222 1221 1220 1220 1221 1222 1222 1222 1221 1221 1222 1223 1223 1224 1225 1226 1227 1229 1230 1231 1233 1234 1235 1236 1238 1240 1242 1245 1247 1250 1252 1256 1259 1263 1266
1384 1382 1380 1378 1375 1372 1370 1368 1365 1362 1360 1357 1353 1348 1344 1341 1338 1334 1331 1326 1322 1319 1314 1310 1306 1303 1298 1295 1292 1288 1284 1280 1277 1273 1270 1267 1265 1262 1260 1257 1254 1251 1247 1244 1241 1237 1232 1228 1225 1222 1219 1218 1218 1218 1218 1218 1218 1218 1217 1217 1219 1220 1220 1221 1221 1223 1224 1225 1226 1227 1228 1229 1231 1232 1234 1236 1238 1241 1243 1246 1249 1253 1257 1260 1264
1381 1379 1377 1375 1372 1370 1367 1365 1362 1360 1357 1355 1351 1346 1342 1339 1336 1332 1328 1324 1320 1317 1312 1308 1304 1301 1298 1293 1289 1286 1282 1278 1274 1270 1267 1264 1261 1259 1256 1253 1250 1247 1244 1241 1237 1234 1229 1225 1221 1218 1216 1215 1215 1215 1215 1214 1215 1214 1214 1215 1216 1216 1217 1217 1218 1219 1220 1221 1221 1223 1224 1225 1227 1229 1230 1232 1235 1237 1240 1243 1247 1250 1254 1257 1260
1378 1377 1375 1372 1370 1367 1365 1362 1360 1357 1355 1352 1348 1344 1341 1337 1334 1330 1327 1323 1319 1315 1311 1307 1303 1299 1296 1292 1289 1286 1282 1277 1273 1269 1266 1262 1259 1256 1254 1251 1248 1245 1242 1239 1235 1231 1227 1223 1219 1216 1214 1213 1212 1212 1211 1211 1211 1211 1211 1212 1213 1213 1214 1214 1214 1215 1216 1217 1218 1219 1221 1222 1224 1226 1228 1230 1233 1235 1238 1241 1245 1248 1251 1254 1258
1375 1374 1372 1370 1367 1365 1362 1360 1358 1356 1354 1350 1346 1343 1340 1336 1333 1329 1326 1322 1318 1313 1309 1305 1302 1298 1295 1291 1288 1286 1282 1276 1272 1269 1265 1261 1258 1255 1252 1250 1247 1244 1241 1237 1233 1229 1226 1222 1219 1216 1214 1212 1211 1210 1210 1210 1209 1209 1209 1210 1210 1210 1210 1211 1211 1212 1213 1214 1215 1217 1218 1220 1222 1224 1226 1228 1231 1234 1237 1240 1243 1246 1250 1253 1256
1372 1371 1369 1367 1365 1362 1360 1358 1356 1354 1352 1349 1345 1341 1338 1335 1332 1329 1325 1321 1317 1313 1308 1304 1301 1297 1293 1290 1287 1284 1280 1275 1271 1268 1264 1261 1257 1254 1251 1249 1246 1243 1240 1237 1233 1230 1226 1222 1219 1217 1215 1213 1212 1211 1210 1209 1208 1208 1208 1208 1207 1208 1208 1209 1209 1210 1211 1212 1213 1215 1217 1219 1221 1223 1225 1227 1229 1232 1236 1239 1242 1245 1248 1252 1255
1370 1368 1366 1364 1362 1360 1358 1356 1354 1352 1350 1346 1343 1340 1337 1334 1332 1328 1324 1321 1317 1312 1308 1304 1300 1296 1292 1289 1285 1282 1278 1274 1270 1267 1264 1260 1257 1254 1251 1248 1245 1242 1240 1237 1234 1231 1227 1224 1221 1219 1217 1215 1213 1211 1210 1208 1208 1207 1207 1206 1206 1206 1207 1207 1208 1209 1210 1211 1212 1214 1215 1217 1219 1221 1224 1226 1229 1232 1235 1238 1241 1244 1247 1251 1254
1367 1366 1364 1362 1360 1359 1357 1354 1353 1351 1348 1344 1341 1339 1336 1334 1331 1328 1324 1320 1317 1313 1309 1305 1300 1296 1292 1288 1284 1280 1277 1273 1270 1266 1263 1260 1257 1253 1250 1248 1245 1242 1239 1237 1234 1231 1228 1225 1222 1220 1218 1216 1213 1211 1210 1208 1207 1207 1206 1206 1206 1206 1207 1207 1208 1209 1210 1211 1212 1213 1215 1217 1219 1221 1223 1226 1228 1231 1234 1237 1240 1243 1246 1250 1253
1365 1363 1362 1360 1358 1357 1355 1353 1351 1349 1345 1343 1340 1338 1336 1333 1330 1327 1324 1320 1316 1313 1309 1305 1301 1297 1293 1288 1285 1281 1277 1274 1270 1267 1263 1260 1256 1253 1250 1247 1244 1242 1239 1236 1234 1231 1228 1226 1223 1220 1218 1216 1214 1212 1210 1209 1208 1207 1207 1207 1207 1207 1207 1208 1208 1209 1210 1211 1212 1213 1215 1217 1219 1221 1223 1226 1228 1231 1234 1237 1240 1243 1246 1249 1252
1363 1361 1359 1358 1356 1354 1353 1351 1349 1347 1344 1341 1339 1337 1335 1332 1329 1326 1324 1320 1316 1313 1310 1306 1302 1298 1294 1290 1287 1283 1279 1275 1271 1267 1264 1260 1257 1254 1251 1248 1245 1242 1240 1237 1234 1232 1229 1226 1224 1221 1219 1216 1214 1213 1212 1210 1209 1209 1208 1208 1208 1208 1209 1209 1210 1210 1211 1212 1213 1215 1216 1218 1220 1222 1224 1226 1229 1232 1235 1237 1240 1243 1246 1248 1251
1360 1359 1357 1356 1354 1352 1351 1349 1347 1345 1342 1340 1338 1336 1334 1331 1329 1326 1323 1320 1317 1314 1311 1307 1304 1300 1297 1293 1289 1285 1281 1277 1273 1270 1266 1262 1258 1255 1252 1249 1246 1244 1241 1238 1235 1232 1230 1227 1225 1223 1220 1218 1216 1215 1213 1212 1211 1211 1210 1210 1210 1210 1210 1211 1211 1212 1213 1214 1215 1216 1218 1219 1221 1223 1225 1228 1230 1233 1236 1239 1242 1244 1247 1249 1252
1358 1357 1355 1354 1352 1351 1349 1347 1345 1343 1341 1339 1338 1335 1333 1331 1328 1326 1323 1320 1318 1315 1312 1309 1306 1302 1299 1296 1292 1288 1284 1280 1277 1273 1269 1265 1261 1258 1255 1251 1248 1245 1242 1240 1237 1234 1232 1229 1227 1225 1223 1220 1218 1217 1215 1214 1214 1213 1213 1212 1212 1212 1212 1213 1213 1214 1214 1216 1217 1218 1220 1221 1223 1225 1227 1229 1232 1235 1237 1240 1243 1245 1248 1251 1253
1356 1355 1353 1352 1351 1349 1347 1346 1343 1342 1340 1339 1337 1335 1333 1330 1328 1325 1323 1320 1318 1315 1313 1310 1307 1304 1301 1298 1294 1291 1287 1283 1280 1277 1273 1269 1265 1262 1259 1255 1252 1249 1245 1242 1239 1237 1234 1232 1230 1228 1226 1224 1221 1220 1218 1217 1216 1215 1215 1215 1215 1214 1214 1215 1215 1216 1217 1218 1219 1220 1222 1223 1225 1227 1229 1231 1234 1237 1239 1242 1244 1247 1249 1252 1255
1353 1353 1352 1350 1349 1348 1346 1344 1342 1341 1339 1338 1336 1334 1332 1330 1328 1325 1322 1320 1318 1316 1313 1311 1308 1305 1302 1299 1296 1293 1290 1286 1283 1280 1276 1273 1270 1266 1263 1260 1257 1253 1250 1247 1244 1241 1238 1236 1233 1231 1229 1227 1225 1224 1222 1220 1219 1219 1218 1218 1218 1217 1217 1218 1218 1219 1220 1221 1222 1223 1225 1226 1227 1229 1232 1234 1237 1239 1242 1244 1246 1249 1251 1254 1257
1351 1351 1350 1349 1347 1346 1345 1343 1341 1340 1339 1337 1335 1333 1331 1329 1327 1325 1322 1320 1318 1316 1314 1311 1309 1306 1304 1301 1298 1295 1292 1289 1286 1283 1280 1277 1273 1270 1267 1264 1261 1258 1255 1252 1249 1246 1244 1241 1238 1236 1234 1232 1230 1228 1226 1225 1224 1223 1222 1222 1221 1221 1221 1221 1222 1223 1224 1225 1226 1227 1228 1229 1231 1233 1235 1237 1240 1242 1244 1247 1249 1252 1254 1256 1259